CW5834 Weather Reports


time (UTC)temp
F
wind
direction
speed
knots
gust
knots
rain 1hr
in
rain 24hr
in
rain mn
in
humidity
%
barometer
mb
20260506102537 68 203 3.5 8.7 0.00 0.02 0.01 68 1010.6
20260506101517 68 180 2.6 9.6 0.00 0.02 0.01 69 1010.6
20260506100537 69 225 4.3 13.9 0.00 0.02 0.01 68 1010.6
20260506095557 69 180 5.2 13.0 0.00 0.02 0.01 66 1010.5
20260506094517 69 203 7.8 12.2 0.00 0.02 0.01 65 1010.6
20260506093536 69 158 6.1 14.8 0.00 0.02 0.01 65 1010.7
20260506092517 69 225 5.2 12.2 0.00 0.02 0.01 65 1010.6
20260506091516 69 203 3.5 11.3 0.00 0.02 0.01 65 1010.8
20260506090517 69 180 5.2 13.0 0.00 0.02 0.01 64 1010.6
20260506085537 69 180 5.2 12.2 0.00 0.02 0.01 64 1010.6
20260506084516 69 203 5.2 13.0 0.00 0.02 0.01 63 1010.6
20260506083516 69 203 4.3 10.4 0.00 0.02 0.01 62 1010.5
20260506082516 69 203 7.0 13.0 0.00 0.02 0.01 62 1010.2
20260506081516 68 203 5.2 11.3 0.00 0.02 0.01 61 1010.5
20260506080516 68 203 5.2 14.8 0.00 0.02 0.01 61 1010.7
20260506073516 68 203 5.2 13.0 0.00 0.02 0.01 59 1010.7
20260506072536 68 203 4.3 12.2 0.00 0.02 0.01 59 1010.9
20260506071517 68 203 4.3 13.0 0.00 0.02 0.01 59 1011.1
20260506070516 68 203 4.3 18.2 0.00 0.02 0.01 59 1011.0
20260506062516 62 203 0.9 1.7 0.01 0.02 0.01 71 1011.3
20260506061516 62 203 0.9 2.6 0.01 0.02 0.01 72 1011.5
20260506060516 63 203 0.9 6.1 0.01 0.02 0.01 71 1011.8
20260506050516 58 0 0.9 1.7 0.00 0.01 0.00 83 1011.6
20260506044518 58 0.0 1.7 0.01 0.01 0.00 86 1011.6
20260506043516 58 68 0.9 1.7 0.01 0.01 0.00 86 1012.0
20260506042516 59 23 0.9 2.6 0.01 0.01 0.00 85 1012.1
20260506041516 59 338 0.9 0.9 0.01 0.01 0.00 84 1012.5
20260506040516 60 0.0 1.7 0.01 0.01 0.00 81 1012.6
20260506035517 61 338 0.9 1.7 0.01 0.01 0.01 77 1012.8
20260506034517 61 0.0 0.9 0.00 0.00 0.00 76 1013.1
20260506033517 61 0.0 1.7 0.00 0.00 0.00 75 1012.9
20260506032516 61 135 0.9 1.7 0.00 0.00 0.00 76 1012.9
20260506031537 61 0.0 1.7 0.00 0.00 0.00 73 1012.7
20260506030537 61 0.0 1.7 0.00 0.00 0.00 70 1012.7
20260506025517 61 0.0 1.7 0.00 0.00 0.00 71 1012.3
20260506024525 61 0.0 0.9 0.00 0.00 0.00 70 1012.3
20260506023517 62 338 0.9 0.9 0.00 0.00 0.00 70 1012.3
20260506022517 62 0.0 0.0 0.00 0.00 0.00 68 1012.3
20260506021516 63 0.0 1.7 0.00 0.00 0.00 67 1012.2
20260506020516 63 338 0.9 1.7 0.00 0.00 0.00 67 1012.1
20260506015516 63 0.0 0.9 0.00 0.00 0.00 67 1011.8
20260506014517 63 0 0.9 1.7 0.00 0.00 0.00 67 1011.6
20260506013537 63 315 0.9 1.7 0.00 0.00 0.00 67 1011.3
20260506012516 63 338 0.9 1.7 0.00 0.00 0.00 66 1011.3
20260506011517 63 315 0.9 1.7 0.00 0.00 0.00 67 1011.2
20260506010516 64 0.0 0.9 0.00 0.00 0.00 66 1010.9
20260506005517 64 0 0.9 1.7 0.00 0.00 0.00 67 1011.1
20260506004516 65 0.0 0.9 0.00 0.00 0.00 65 1011.4
20260506003516 65 0.0 0.9 0.00 0.00 0.00 64 1011.1
20260506002516 66 0.0 0.9 0.00 0.00 0.00 65 1011.2
20260506001516 66 0.0 0.9 0.00 0.00 0.00 63 1011.3
20260506000516 67 0.0 0.9 0.00 0.00 0.00 64 1011.0
20260505235536 67 0 0.9 0.9 0.00 0.00 0.00 64 1010.8
20260505234516 68 0.0 0.9 0.00 0.00 0.00 65 1010.9
20260505233516 69 0 0.9 0.9 0.00 0.00 0.00 63 1010.8
20260505232516 70 0.0 0.9 0.00 0.00 0.00 66 1010.9
20260505231516 71 0.0 0.9 0.00 0.00 0.00 61 1011.0
20260505230516 72 0.0 0.0 0.00 0.00 0.00 60 1011.4
20260505225516 72 0.0 1.7 0.00 0.00 0.00 51 1011.4
20260505224516 73 0.0 1.7 0.00 0.00 0.00 49 1011.4
20260505223516 73 203 0.9 2.6 0.00 0.00 0.00 47 1011.5
20260505222516 73 225 0.9 2.6 0.00 0.00 0.00 48 1011.5
20260505221516 72 0.0 0.9 0.00 0.00 0.00 53 1011.6
20260505220516 72 0.0 1.7 0.00 0.00 0.00 50 1011.8
20260505215516 72 338 0.9 1.7 0.00 0.00 0.00 48 1011.9
20260505214516 72 203 0.9 3.5 0.00 0.00 0.00 48 1011.9
20260505213516 72 225 1.7 4.3 0.00 0.00 0.00 46 1012.0
20260505212516 73 270 1.7 7.8 0.00 0.00 0.00 46 1012.2
20260505211516 73 270 1.7 3.5 0.00 0.00 0.00 46 1012.1
20260505210516 74 203 1.7 5.2 0.00 0.00 0.00 45 1012.2
20260505205516 74 293 1.7 5.2 0.00 0.00 0.00 46 1012.7
20260505204516 74 203 3.5 7.8 0.00 0.00 0.00 47 1012.6
20260505203516 73 225 2.6 6.1 0.00 0.00 0.00 48 1012.8
20260505202536 73 225 1.7 7.0 0.00 0.00 0.00 48 1013.0
20260505201516 73 225 1.7 5.2 0.00 0.00 0.00 48 1012.9
20260505200536 73 180 2.6 6.1 0.00 0.00 0.00 48 1013.1
20260505195536 74 225 2.6 6.1 0.00 0.00 0.00 48 1013.2
20260505194536 73 225 2.6 7.8 0.00 0.00 0.00 48 1013.3
20260505193517 74 225 2.6 6.1 0.00 0.00 0.00 46 1013.7
20260505192516 74 203 3.5 9.6 0.00 0.00 0.00 45 1013.7
20260505191515 75 248 2.6 6.1 0.00 0.00 0.00 44 1014.0
20260505190516 74 225 2.6 6.1 0.00 0.00 0.00 48 1014.2
20260505185516 73 225 3.5 7.8 0.00 0.00 0.00 48 1014.5
20260505184516 73 248 3.5 9.6 0.00 0.00 0.00 47 1014.4
20260505183516 73 225 2.6 7.8 0.00 0.00 0.00 48 1014.5
20260505182520 73 225 2.6 8.7 0.00 0.00 0.00 49 1014.8
20260505181516 73 203 2.6 8.7 0.00 0.00 0.00 47 1015.1
20260505180515 72 270 2.6 7.8 0.00 0.00 0.00 48 1015.1
20260505175516 72 203 5.2 9.6 0.00 0.00 0.00 45 1015.0
20260505174515 72 225 1.7 6.1 0.00 0.00 0.00 49 1015.4
20260505173516 72 225 3.5 6.1 0.00 0.00 0.00 47 1015.4
20260505172515 72 225 3.5 7.8 0.00 0.00 0.00 46 1015.4
20260505171516 72 203 3.5 8.7 0.00 0.00 0.00 49 1015.7
20260505170536 71 203 3.5 11.3 0.00 0.00 0.00 46 1016.0
20260505165515 71 203 3.5 9.6 0.00 0.00 0.00 50 1016.2
20260505164515 71 203 4.3 9.6 0.00 0.00 0.00 48 1016.1
20260505163516 71 180 4.3 10.4 0.00 0.00 0.00 50 1016.2
20260505162556 71 225 2.6 7.0 0.00 0.00 0.00 53 1016.4
20260505161515 70 203 3.5 9.6 0.00 0.00 0.00 52 1016.3
20260505160517 70 203 3.5 10.4 0.00 0.00 0.00 53 1016.3
20260505152557 70 203 1.7 4.3 0.00 0.00 0.00 52 1016.3
20260505151517 69 203 2.6 6.1 0.00 0.00 0.00 53 1016.2
20260505150517 69 203 0.9 4.3 0.00 0.00 0.00 54 1016.1
20260505140518 68 225 2.6 7.0 0.00 0.00 0.00 55 1016.0
20260505124517 61 180 0.9 1.7 0.00 0.00 0.00 67 1015.8
20260505123517 60 0.0 1.7 0.00 0.00 0.00 73 1015.9
20260505122518 58 0.0 1.7 0.00 0.00 0.00 75 1015.7
20260505121517 56 0.0 1.7 0.00 0.00 0.00 79 1015.4
20260505120517 55 0.0 1.7 0.00 0.00 0.00 82 1015.4
20260505115537 53 0.0 1.7 0.00 0.00 0.00 82 1015.3
20260505114517 51 0.0 0.9 0.00 0.00 0.00 84 1015.2
20260505113537 51 0.0 1.7 0.00 0.00 0.00 83 1015.3
20260505112517 50 0.0 0.9 0.00 0.00 0.00 84 1015.1
20260505111517 50 0.0 0.9 0.00 0.00 0.00 84 1014.8
20260505110517 49 0.0 0.0 0.00 0.00 0.00 84 1014.6